SCP
0 0 0 0 1 0 0 0 0 0 0 0 0 0 0 0 0 0 0 0 0 0 0 0 0 0 0 0 0 0 0 0 0 0 0 0 0 0 0 0 0 0 0
0 0 0 0 0 0 0 0 0 0 0 0 0 0 0 0 0 0 0 0 0 0 0 0 0 0 0 0 0 0 0 0 0 0 0 0 0 0 0 0 0 0 0
0 0 0 0 0 0 0 0 0 0 0 0 0 0 0 -0 -0 0 0 0 0 0 0 0 0 0 0 0 0 0 0 0 0 0 0 0 0 0 0 0 0 0 0
0 0 0 0 0 0 0 0 0 0 0 0 -0 -0 0 -0 0 0 0 0 0 0 0 0 0 0 0 0 0 0 0 0 0 0 0 0 0 0 0 0 0 0 0
0 0 0 0 0 0 0 0 0 0 0 0 0 -0 0 0 0 0 0 0 0 0 0 0 0 0 0 0 0 0 0 0 0 0 0 0 0 0 0 0 0 0 0
0 0 0 0 0 0 0 0 0 0 0 0 0 0 0 0 0 0 0 0 0 0 0 0 0 0 0 0 0 0 0 0 0 0 0 0 0 0 0 0 0 0 0
0 0 0 0 0 0 0 0 0 0 0 0 0 0 0 0 0 0 0 0 0 0 0 0 0 0 0 0 0 0 0 0 0 0 0 0 0 0 0 0 0 0 0
0 0 0 0 0 0 0 0 0 0 0 0 0 0 0 0 0 0 0 0 0 0 0 0 0 0 0 0 0 0 0 0 0 0 0 0 0 0 0 0 0 0 0
0 0 0 0 0 0 0 0 0 0 0 0 0 0 0 0 0 0 0 0 0 0 0 0 0 0 0 0 0 0 0 0 0 0 0 0 0 0 0 0 0 0 0
0 0 0 0 0 0 0 0 0 0 0 0 0 0 0 0 0 0 0 0 0 -0 0 0 0 0 0 0 0 0 0 0 0 0 0 0 0 0 0 0 0 0 0
0 0 0 0 0 0 0 0 0 0 0 0 0 0 0 0 0 0 0 0 0 0 0 0 0 0 0 0 0 0 0 0 0 0 0 0 0 0 0 0 0 0 0
0 0 0 0 0 0 0 0 0 0 0 0 0 0 0 0 0 0 0 0 0 0 0 0 0 0 0 0 0 0 0 0 0 0 0 0 0 0 0 0 0 0 0
0 0 0 0 0 0 0 0 0 0 0 0 0 0 0 0 0 0 0 0 0 0 0 0 0 0 0 0 0 0 0 0 0 0 0 0 0 0 0 0 0 0 0
0 0 0 0 0 0 0 0 0 0 0 0 0 0 0 0 0 0 0 0 0 0 0 0 0 0 0 0 0 0 0 0 0 0 0 0 0 0 0 0 0 0 0
0 0 0 0 0 0 0 0 0 0 0 0 0 0 0 0 0 0 0 0 0 0 0 0 0 0 0 0 0 -0 0 0 0 0 0 0 0 0 0 0 0 0 0
0 0 0 0 0 0 0 0 0 0 0 0 0 0 0 0 0 0 0 0 0 0 0 0 0 0 0 0 0 0 0 0 0 0 0 0 0 0 0 0 0 0 0
0 0 0 0 0 0 0 0 0 0 0 0 0 0 0 -0 -0 -0 0 -0 0 0 0 0 0 0 0 0 0 0 0 0 0 0 0 -0 0 -0 -0 -0 0 0 0
0 0 0 0 0 0 0 0 0 0 0 0 0 0 -0 -0 0 0 0 0 -0 -0 -0 0 0 0 0 0 0 0 0 0 0 -0 0 0 0 0 -0 0 0 0 0
0 0 0 0 0 0 0 0 0 0 0 0 0 0 0 0 0 0 0 -0 -0 -0 -0 0 0 0 0 0 0 0 0 0 0 -0 -0 -0 0 0 0 0 0 0 0
0 0 0 0 0 0 0 0 0 0 0 0 0 0 -0 -0 0 -0 -0 -0 -0 -0 -0 -0 0 0 0 0 0 0 0 0 0 0 0 -0 -0 0 0 0 0 0 0
0 0 0 0 0 0 -0 0 0 0 0 0 0 0 -0 0 0 0 -0 -0 -0 -0 -0 -0 -0 0 0 0 0 0 0 0 0 0 -0 0 0 0 0 0 0 0 0
0 0 0 0 0 0 0 0 0 0 0 0 0 0 0 0 0 0 0 0 -0 -0 -0 -0 0 0 0 0 0 0 0 0 0 -0 -0 -0 0 0 0 0 0 0 0
0 0 0 0 0 0 0 0 0 0 0 0 0 0 0 0 0 0 0 0 0 -0 -0 0 0 0 0 0 0 0 0 0 0 0 0 -0 0 0 0 0 0 0 0
0 0 0 0 0 0 0 0 0 0 0 0 0 0 0 0 0 0 0 0 0 0 0 0 0 0 0 0 0 0 0 0 0 0 0 0 0 0 0 0 0 0 0
0 0 0 0 -0 0 0 0 0 0 0 0 0 0 0 0 0 0 0 0 0 0 -0 -0 0 0 0 0 0 0 0 0 0 0 0 0 0 0 -0 0 0 0 0
0 0 0 0 0 0 0 0 0 0 0 0 0 0 0 0 -0 0 -0 0 0 0 0 -0 -0 -0 0 0 0 0 0 0 0 0 0 0 0 0 0 0 0 0 0
Wind_Speed_500mb
14 7 6 14 25 25 25 32 30 32 20 21 18 18 28 30 33 36 37 37 38 41 39 35 30 31 33 35 37 38 39 39 45 46 45 36 49 62 88 88 88 64 55
18 16 22 23 14 19 19 11 5 6 13 12 21 21 23 27 28 30 29 29 29 30 32 35 41 42 42 39 38 39 40 35 35 41 43 40 36 37 49 61 74 45 48
10 21 20 12 7 9 4 1 3 7 10 17 20 25 31 37 35 25 25 25 28 31 34 35 37 40 44 42 39 39 38 36 37 41 41 37 41 43 44 42 45 57 41
18 15 14 12 1 3 2 4 6 12 16 22 32 39 43 37 24 27 28 29 32 41 42 38 38 40 42 40 43 42 40 38 36 39 40 41 40 38 42 50 50 50 48
10 7 8 6 5 8 2 8 12 13 24 30 36 41 35 24 30 37 37 37 45 47 42 42 41 42 44 43 46 42 38 40 44 44 42 40 38 38 40 38 40 43 58
1 4 12 15 11 9 14 13 11 19 28 35 28 34 33 34 36 41 43 44 48 47 43 41 46 47 46 43 46 42 44 43 44 47 47 42 40 36 35 31 31 38 47
12 17 18 11 14 13 7 11 19 28 34 25 31 32 26 32 37 37 36 39 41 49 51 50 57 55 45 52 47 53 49 39 39 44 48 42 41 37 34 34 38 37 45
15 12 11 10 7 11 15 17 26 23 23 29 31 36 36 43 46 44 39 35 45 45 50 59 65 60 51 53 52 60 54 45 39 42 42 41 45 40 33 35 33 35 32
15 14 16 14 12 13 9 19 19 19 25 31 36 42 42 49 48 45 46 53 48 49 50 43 45 54 54 55 58 60 62 62 55 49 44 43 44 42 42 41 40 39 40
7 10 7 7 10 15 17 20 25 31 26 31 35 40 43 48 57 55 55 56 50 44 42 49 57 59 63 67 70 68 72 72 68 66 64 59 50 43 45 47 43 42 39
8 13 11 11 13 17 25 29 32 32 33 29 36 41 46 49 48 37 36 41 38 43 49 51 47 49 51 53 51 53 58 53 54 60 65 72 67 59 51 50 51 48 45
9 9 12 19 24 30 33 31 31 29 27 34 45 40 30 28 30 26 29 32 39 42 30 27 41 61 49 45 41 42 39 39 42 45 46 49 50 59 54 50 51 53 51
15 21 26 27 28 29 30 30 24 31 40 41 34 33 32 31 28 20 27 34 26 13 24 25 38 46 54 55 39 28 29 32 27 20 23 27 24 25 31 43 48 45 42
15 19 20 22 21 22 25 30 35 37 34 30 34 34 32 27 23 24 29 23 10 17 18 23 32 38 43 58 53 42 28 30 26 29 33 32 25 23 26 30 30 35 35
12 13 14 18 24 31 36 36 31 28 28 32 32 23 22 25 27 25 15 13 21 23 22 29 34 37 40 43 47 50 38 40 43 41 27 28 28 27 26 23 26 30 38
9 9 17 23 34 39 36 27 24 27 31 30 22 20 18 16 18 21 19 22 27 27 25 30 34 39 42 42 36 35 31 35 37 41 40 30 15 7 15 28 29 29 31
12 18 25 30 29 29 25 24 24 26 21 11 13 26 25 22 22 22 21 26 30 32 34 35 35 39 46 40 32 38 30 34 41 31 36 44 23 24 16 15 23 31 27
22 26 21 17 21 29 31 28 18 8 10 28 22 19 16 18 19 22 30 34 39 43 41 36 31 30 34 34 33 35 26 28 36 42 31 38 39 10 13 13 29 36 52
27 14 8 15 22 27 18 11 8 12 28 20 17 15 15 14 21 27 33 39 41 49 49 39 33 28 26 26 25 24 22 25 30 33 37 27 39 27 12 34 50 56 55
14 6 5 7 15 22 20 14 17 25 13 12 11 11 10 12 17 25 33 40 41 49 51 44 37 29 24 23 24 24 25 25 24 25 26 29 20 33 24 29 37 55 52
9 4 5 5 7 19 20 19 17 10 11 10 8 10 15 15 15 19 28 35 38 47 51 44 36 31 28 28 29 31 30 28 25 25 23 21 19 15 21 26 37 25 42
7 10 8 4 7 13 11 9 9 8 9 11 8 6 11 8 16 15 23 31 36 42 47 38 33 32 33 36 37 34 35 38 35 33 24 21 22 16 10 11 19 26 23
4 4 7 10 12 10 14 11 13 14 21 17 19 13 15 11 10 16 17 24 31 35 43 36 27 25 28 34 39 42 38 34 35 33 31 24 9 14 17 16 18 26 29
2 3 1 6 4 11 15 16 14 12 10 13 16 6 5 5 6 13 15 19 25 31 37 42 31 21 20 22 28 37 34 32 29 30 32 28 19 17 6 13 20 22 26
10 9 5 4 13 14 15 10 7 5 3 2 3 5 6 3 7 9 11 15 18 24 30 36 39 31 14 13 19 25 32 38 28 29 27 28 26 27 21 16 20 25 25
12 5 6 11 16 9 8 2 3 6 4 9 5 4 6 5 9 11 15 17 18 22 26 31 37 40 23 10 8 20 23 26 28 26 18 16 16 19 24 19 16 20 19
Wind_Direction_500mb
210 222 243 294 273 263 262 259 260 263 260 274 290 300 311 313 308 307 304 299 296 300 301 303 308 308 308 310 308 306 304 304 297 296 288 281 279 260 242 231 246 249 261
242 242 292 322 268 268 292 289 176 213 257 290 317 321 323 322 319 316 309 302 305 303 303 304 307 308 309 306 302 302 306 301 300 298 302 289 276 271 256 255 247 253 251
215 264 301 325 278 301 319 89 216 243 301 319 325 336 344 345 341 331 333 329 324 322 319 316 314 309 309 308 302 300 299 298 296 294 296 296 283 273 258 258 247 253 255
288 275 273 285 297 132 206 250 263 281 307 338 349 348 344 340 339 335 334 332 331 325 325 315 310 309 311 305 301 297 295 296 293 295 295 288 284 280 268 264 255 248 260
232 219 222 204 283 308 289 270 273 318 337 339 341 349 343 341 331 331 327 319 319 311 312 311 314 305 306 306 310 301 300 298 290 289 295 300 290 277 274 283 278 255 256
110 269 285 291 299 274 263 282 324 335 340 337 336 358 355 339 332 323 320 316 322 321 309 301 305 304 303 297 301 295 300 301 294 286 284 286 297 295 286 286 276 269 267
265 269 269 267 257 245 275 316 327 328 325 325 321 325 320 316 307 316 308 309 310 319 309 307 308 305 295 300 298 298 297 296 293 289 279 276 286 290 283 273 273 267 254
248 241 200 189 259 284 295 307 323 323 321 308 299 300 297 311 311 311 293 298 306 310 311 301 303 307 300 294 295 293 291 290 296 289 285 275 275 280 272 279 271 269 257
199 256 251 245 274 279 282 323 320 316 312 300 292 292 302 316 318 315 296 304 301 310 312 307 303 306 298 292 289 286 283 281 279 281 279 278 273 267 269 269 265 264 260
314 293 286 311 327 306 301 307 303 307 311 311 309 305 316 311 304 299 299 303 313 317 308 307 305 301 294 286 283 281 278 278 279 274 269 268 269 270 263 258 260 258 252
272 299 291 313 299 295 285 288 296 306 308 310 305 306 310 306 309 313 306 314 320 319 319 323 334 331 305 292 288 286 287 291 286 281 278 270 262 261 269 258 251 250 254
296 296 279 278 281 285 289 294 302 306 307 308 306 305 309 317 318 323 326 323 322 325 349 12 7 9 0 344 312 295 296 293 293 292 288 284 273 258 258 253 248 249 254
265 271 274 281 288 293 291 299 302 307 306 303 302 309 311 318 314 319 332 326 329 8 359 359 6 14 13 11 2 345 314 297 296 313 320 305 291 273 258 248 247 245 246
277 285 287 295 293 297 302 303 305 307 304 307 310 309 304 309 304 312 331 324 324 339 339 350 357 2 14 18 17 15 360 5 353 324 313 307 292 271 273 259 245 235 244
308 304 294 303 314 312 313 309 304 311 321 319 315 314 312 309 313 323 355 28 349 338 339 343 349 360 8 12 16 28 28 24 12 359 322 303 287 278 264 257 235 229 235
312 308 321 321 327 324 317 302 312 320 324 328 331 333 345 12 53 64 39 23 14 2 349 349 357 357 357 354 351 357 357 356 4 11 356 340 326 329 295 242 240 225 221
317 322 318 319 321 335 318 312 311 319 330 15 49 83 72 59 48 46 30 7 360 356 353 353 352 353 355 346 348 348 347 354 358 347 7 15 355 295 296 283 236 219 187
323 318 318 341 355 336 316 314 326 35 70 104 90 70 63 59 45 36 20 6 7 7 3 354 349 357 1 8 14 5 6 9 10 7 5 15 18 332 342 291 219 205 174
315 306 335 7 355 341 355 28 46 95 120 102 96 75 63 49 35 23 17 11 10 9 8 5 359 352 352 360 359 354 0 8 10 14 15 24 32 25 65 90 101 136 133
312 306 52 23 9 28 33 63 96 119 91 99 96 74 48 20 9 16 15 12 13 13 11 8 7 7 7 10 6 3 359 2 4 10 13 16 36 40 79 111 128 118 133
250 177 111 268 37 41 52 77 104 75 64 80 59 15 357 352 357 5 11 11 11 12 15 18 28 31 33 29 22 18 17 12 13 24 31 24 40 70 80 100 120 102 131
139 140 165 35 359 25 52 63 54 35 5 346 320 328 334 324 342 347 3 11 11 12 18 24 29 29 31 32 30 32 31 34 36 35 31 35 40 61 87 130 126 130 119
189 198 221 231 299 325 329 315 305 313 310 314 314 295 266 286 319 338 4 11 8 10 19 22 25 27 35 35 32 31 26 27 25 24 25 33 30 43 64 105 142 160 149
359 289 294 274 296 313 317 323 314 314 302 313 288 266 301 251 290 319 348 5 3 7 16 20 20 20 31 28 22 28 27 27 25 32 31 31 57 58 84 95 118 131 156
338 267 329 286 291 290 282 258 263 203 160 109 165 194 171 267 303 282 319 343 346 350 2 13 15 10 1 14 22 27 27 19 55 35 44 45 60 70 74 108 123 135 148
25 31 281 302 318 263 249 267 8 209 282 233 223 215 280 335 310 311 325 322 319 325 339 351 1 5 4 352 343 8 23 22 13 24 37 43 59 67 70 98 120 142 137
Wind_Speed_850mb
14 7 6 14 25 25 25 32 30 32 20 21 18 18 28 30 33 36 37 37 38 41 39 35 30 31 33 35 37 38 39 39 45 46 45 36 49 62 88 88 88 64 55
18 16 22 23 14 19 19 11 5 6 13 12 21 21 23 27 28 30 29 29 29 30 32 35 41 42 42 39 38 39 40 35 35 41 43 40 36 37 49 61 74 45 48
10 21 20 12 7 9 4 1 3 7 10 17 20 25 31 37 35 25 25 25 28 31 34 35 37 40 44 42 39 39 38 36 37 41 41 37 41 43 44 42 45 57 41
18 15 14 12 1 3 2 4 6 12 16 22 32 39 43 37 24 27 28 29 32 41 42 38 38 40 42 40 43 42 40 38 36 39 40 41 40 38 42 50 50 50 48
10 7 8 6 5 8 2 8 12 13 24 30 36 41 35 24 30 37 37 37 45 47 42 42 41 42 44 43 46 42 38 40 44 44 42 40 38 38 40 38 40 43 58
1 4 12 15 11 9 14 13 11 19 28 35 28 34 33 34 36 41 43 44 48 47 43 41 46 47 46 43 46 42 44 43 44 47 47 42 40 36 35 31 31 38 47
12 17 18 11 14 13 7 11 19 28 34 25 31 32 26 32 37 37 36 39 41 49 51 50 57 55 45 52 47 53 49 39 39 44 48 42 41 37 34 34 38 37 45
15 12 11 10 7 11 15 17 26 23 23 29 31 36 36 43 46 44 39 35 45 45 50 59 65 60 51 53 52 60 54 45 39 42 42 41 45 40 33 35 33 35 32
15 14 16 14 12 13 9 19 19 19 25 31 36 42 42 49 48 45 46 53 48 49 50 43 45 54 54 55 58 60 62 62 55 49 44 43 44 42 42 41 40 39 40
7 10 7 7 10 15 17 20 25 31 26 31 35 40 43 48 57 55 55 56 50 44 42 49 57 59 63 67 70 68 72 72 68 66 64 59 50 43 45 47 43 42 39
8 13 11 11 13 17 25 29 32 32 33 29 36 41 46 49 48 37 36 41 38 43 49 51 47 49 51 53 51 53 58 53 54 60 65 72 67 59 51 50 51 48 45
9 9 12 19 24 30 33 31 31 29 27 34 45 40 30 28 30 26 29 32 39 42 30 27 41 61 49 45 41 42 39 39 42 45 46 49 50 59 54 50 51 53 51
15 21 26 27 28 29 30 30 24 31 40 41 34 33 32 31 28 20 27 34 26 13 24 25 38 46 54 55 39 28 29 32 27 20 23 27 24 25 31 43 48 45 42
15 19 20 22 21 22 25 30 35 37 34 30 34 34 32 27 23 24 29 23 10 17 18 23 32 38 43 58 53 42 28 30 26 29 33 32 25 23 26 30 30 35 35
12 13 14 18 24 31 36 36 31 28 28 32 32 23 22 25 27 25 15 13 21 23 22 29 34 37 40 43 47 50 38 40 43 41 27 28 28 27 26 23 26 30 38
9 9 17 23 34 39 36 27 24 27 31 30 22 20 18 16 18 21 19 22 27 27 25 30 34 39 42 42 36 35 31 35 37 41 40 30 15 7 15 28 29 29 31
12 18 25 30 29 29 25 24 24 26 21 11 13 26 25 22 22 22 21 26 30 32 34 35 35 39 46 40 32 38 30 34 41 31 36 44 23 24 16 15 23 31 27
22 26 21 17 21 29 31 28 18 8 10 28 22 19 16 18 19 22 30 34 39 43 41 36 31 30 34 34 33 35 26 28 36 42 31 38 39 10 13 13 29 36 52
27 14 8 15 22 27 18 11 8 12 28 20 17 15 15 14 21 27 33 39 41 49 49 39 33 28 26 26 25 24 22 25 30 33 37 27 39 27 12 34 50 56 55
14 6 5 7 15 22 20 14 17 25 13 12 11 11 10 12 17 25 33 40 41 49 51 44 37 29 24 23 24 24 25 25 24 25 26 29 20 33 24 29 37 55 52
9 4 5 5 7 19 20 19 17 10 11 10 8 10 15 15 15 19 28 35 38 47 51 44 36 31 28 28 29 31 30 28 25 25 23 21 19 15 21 26 37 25 42
7 10 8 4 7 13 11 9 9 8 9 11 8 6 11 8 16 15 23 31 36 42 47 38 33 32 33 36 37 34 35 38 35 33 24 21 22 16 10 11 19 26 23
4 4 7 10 12 10 14 11 13 14 21 17 19 13 15 11 10 16 17 24 31 35 43 36 27 25 28 34 39 42 38 34 35 33 31 24 9 14 17 16 18 26 29
2 3 1 6 4 11 15 16 14 12 10 13 16 6 5 5 6 13 15 19 25 31 37 42 31 21 20 22 28 37 34 32 29 30 32 28 19 17 6 13 20 22 26
10 9 5 4 13 14 15 10 7 5 3 2 3 5 6 3 7 9 11 15 18 24 30 36 39 31 14 13 19 25 32 38 28 29 27 28 26 27 21 16 20 25 25
12 5 6 11 16 9 8 2 3 6 4 9 5 4 6 5 9 11 15 17 18 22 26 31 37 40 23 10 8 20 23 26 28 26 18 16 16 19 24 19 16 20 19
Wind_Direction_850mb
210 222 243 294 273 263 262 259 260 263 260 274 290 300 311 313 308 307 304 299 296 300 301 303 308 308 308 310 308 306 304 304 297 296 288 281 279 260 242 231 246 249 261
242 242 292 322 268 268 292 289 176 213 257 290 317 321 323 322 319 316 309 302 305 303 303 304 307 308 309 306 302 302 306 301 300 298 302 289 276 271 256 255 247 253 251
215 264 301 325 278 301 319 89 216 243 301 319 325 336 344 345 341 331 333 329 324 322 319 316 314 309 309 308 302 300 299 298 296 294 296 296 283 273 258 258 247 253 255
288 275 273 285 297 132 206 250 263 281 307 338 349 348 344 340 339 335 334 332 331 325 325 315 310 309 311 305 301 297 295 296 293 295 295 288 284 280 268 264 255 248 260
232 219 222 204 283 308 289 270 273 318 337 339 341 349 343 341 331 331 327 319 319 311 312 311 314 305 306 306 310 301 300 298 290 289 295 300 290 277 274 283 278 255 256
110 269 285 291 299 274 263 282 324 335 340 337 336 358 355 339 332 323 320 316 322 321 309 301 305 304 303 297 301 295 300 301 294 286 284 286 297 295 286 286 276 269 267
265 269 269 267 257 245 275 316 327 328 325 325 321 325 320 316 307 316 308 309 310 319 309 307 308 305 295 300 298 298 297 296 293 289 279 276 286 290 283 273 273 267 254
248 241 200 189 259 284 295 307 323 323 321 308 299 300 297 311 311 311 293 298 306 310 311 301 303 307 300 294 295 293 291 290 296 289 285 275 275 280 272 279 271 269 257
199 256 251 245 274 279 282 323 320 316 312 300 292 292 302 316 318 315 296 304 301 310 312 307 303 306 298 292 289 286 283 281 279 281 279 278 273 267 269 269 265 264 260
314 293 286 311 327 306 301 307 303 307 311 311 309 305 316 311 304 299 299 303 313 317 308 307 305 301 294 286 283 281 278 278 279 274 269 268 269 270 263 258 260 258 252
272 299 291 313 299 295 285 288 296 306 308 310 305 306 310 306 309 313 306 314 320 319 319 323 334 331 305 292 288 286 287 291 286 281 278 270 262 261 269 258 251 250 254
296 296 279 278 281 285 289 294 302 306 307 308 306 305 309 317 318 323 326 323 322 325 349 12 7 9 0 344 312 295 296 293 293 292 288 284 273 258 258 253 248 249 254
265 271 274 281 288 293 291 299 302 307 306 303 302 309 311 318 314 319 332 326 329 8 359 359 6 14 13 11 2 345 314 297 296 313 320 305 291 273 258 248 247 245 246
277 285 287 295 293 297 302 303 305 307 304 307 310 309 304 309 304 312 331 324 324 339 339 350 357 2 14 18 17 15 360 5 353 324 313 307 292 271 273 259 245 235 244
308 304 294 303 314 312 313 309 304 311 321 319 315 314 312 309 313 323 355 28 349 338 339 343 349 360 8 12 16 28 28 24 12 359 322 303 287 278 264 257 235 229 235
312 308 321 321 327 324 317 302 312 320 324 328 331 333 345 12 53 64 39 23 14 2 349 349 357 357 357 354 351 357 357 356 4 11 356 340 326 329 295 242 240 225 221
317 322 318 319 321 335 318 312 311 319 330 15 49 83 72 59 48 46 30 7 360 356 353 353 352 353 355 346 348 348 347 354 358 347 7 15 355 295 296 283 236 219 187
323 318 318 341 355 336 316 314 326 35 70 104 90 70 63 59 45 36 20 6 7 7 3 354 349 357 1 8 14 5 6 9 10 7 5 15 18 332 342 291 219 205 174
315 306 335 7 355 341 355 28 46 95 120 102 96 75 63 49 35 23 17 11 10 9 8 5 359 352 352 360 359 354 0 8 10 14 15 24 32 25 65 90 101 136 133
312 306 52 23 9 28 33 63 96 119 91 99 96 74 48 20 9 16 15 12 13 13 11 8 7 7 7 10 6 3 359 2 4 10 13 16 36 40 79 111 128 118 133
250 177 111 268 37 41 52 77 104 75 64 80 59 15 357 352 357 5 11 11 11 12 15 18 28 31 33 29 22 18 17 12 13 24 31 24 40 70 80 100 120 102 131
139 140 165 35 359 25 52 63 54 35 5 346 320 328 334 324 342 347 3 11 11 12 18 24 29 29 31 32 30 32 31 34 36 35 31 35 40 61 87 130 126 130 119
189 198 221 231 299 325 329 315 305 313 310 314 314 295 266 286 319 338 4 11 8 10 19 22 25 27 35 35 32 31 26 27 25 24 25 33 30 43 64 105 142 160 149
359 289 294 274 296 313 317 323 314 314 302 313 288 266 301 251 290 319 348 5 3 7 16 20 20 20 31 28 22 28 27 27 25 32 31 31 57 58 84 95 118 131 156
338 267 329 286 291 290 282 258 263 203 160 109 165 194 171 267 303 282 319 343 346 350 2 13 15 10 1 14 22 27 27 19 55 35 44 45 60 70 74 108 123 135 148
25 31 281 302 318 263 249 267 8 209 282 233 223 215 280 335 310 311 325 322 319 325 339 351 1 5 4 352 343 8 23 22 13 24 37 43 59 67 70 98 120 142 137